Zurück zum Katalog

COSMOS 2443

GLONASS

AktivNavigationMEO
NORAD 33379·PAYLOAD·🇷🇺 Russia

Gestartet Sep 25, 2008 von Baikonur Cosmodrome

Loading…

Nächste Überflüge (nächste 24 Stunden)

TLE

AktuellSource: Space-Track

Epoche: Sep 11, 2026, 22:27 UTC

1 33379U 08046B   26254.93580013 -.00000042  00000-0  00000-0 0  9998
2 33379  65.4201 312.0474 0016748 182.5410 176.4611  2.13099665139799

Verfolge COSMOS 2443 in Echtzeit mit AllMySat

Download on the App Store